Regional Weather Roundup
Issued by NWS

Home | Current Version | Previous Version | Text Only | Print | Product List | Glossary On
Versions: 1 2 3 4 5 6 7 8 9 10 11 12 13 14 15 16 17 18 19 20 21 22 23 24 25 26 27 28
000
ASCA42 TJSJ 211010
RWRPR
PUERTO RICO/U.S. VIRGIN ISLANDS HOURLY WEATHER ROUNDUP
NATIONAL WEATHER SERVICE SAN JUAN PR
600 AM AST SAT APR 21 2018

PRZ001>002-007>008-010-211100-
PUERTO RICO

CITY           SKY/WX    TMP DP  RH WIND       PRES   REMARKS
SAN JUAN LMM   MOCLDY    75  75 100 CALM      30.05R
CEIBA          MOCLDY   N/A N/A N/A E8        30.06
$$

VIZ001>002-211100-
U.S. VIRGIN ISLANDS

CITY           SKY/WX    TMP DP  RH WIND       PRES   REMARKS
CHARLOTTE AMA  CLEAR     79  73  83 E8        30.03
$$

HOURLY WEATHER ROUNDUP FOR THE NEWS MEDIA

CITY           SKY/WX    TMP DP  RH WIND       PRES   REMARKS
ORLANDO        FAIR      68  66  93 NE3       30.13R
NEW YORK       FAIR      39  25  57 NW12      30.40R WCI  32
NEWARK         FAIR      39  24  55 VRB5      30.40R
CHICAGO        CLOUDY    43  17  35 CALM      30.43S
HARTFORD       FAIR      36  27  69 W7        30.28R WCI  30
BOSTON         FAIR      39  26  59 W13       30.28R WCI  31
DALLAS         MOCLDY    58  47  66 SE9       30.06F
PHILADELPHIA   FAIR      37  24  59 W3        30.45R
LOS ANGELES    FAIR      56  51  84 SW6       30.06F
WASHINGTON DC  FAIR      34  28  79 NW5       30.46R WCI  30



USA.gov is the U.S. government's official web portal to all federal, state and local government web resources and services.